TimeMST,TemperatureF,Dew PointF,Humidity,Sea Level PressureIn,VisibilityMPH,Wind Direction,Wind SpeedMPH,Gust SpeedMPH,PrecipitationIn,Events,Conditions,WindDirDegrees,DateUTC
12:51 AM,24.1,19.9,84,30.58,10.0,West,6.9,-,N/A,,Mostly Cloudy,260,2011-12-01 07:51:00
1:51 AM,25.0,19.9,81,30.58,10.0,WNW,11.5,-,N/A,,Clear,300,2011-12-01 08:51:00
2:51 AM,25.0,18.0,75,30.61,10.0,North,5.8,-,N/A,,Clear,350,2011-12-01 09:51:00
3:51 AM,26.1,16.0,66,30.61,10.0,North,8.1,-,N/A,,Clear,350,2011-12-01 10:51:00
4:51 AM,25.0,15.1,66,30.60,10.0,North,4.6,-,N/A,,Clear,360,2011-12-01 11:51:00
5:51 AM,25.0,15.1,66,30.60,10.0,North,9.2,-,N/A,,Clear,10,2011-12-01 12:51:00
6:51 AM,25.0,12.9,60,30.61,10.0,NNE,6.9,-,N/A,,Clear,20,2011-12-01 13:51:00
7:51 AM,26.1,12.9,58,30.61,10.0,North,12.7,-,N/A,,Clear,10,2011-12-01 14:51:00
8:51 AM,27.0,12.9,56,30.60,10.0,North,12.7,19.6,N/A,,Clear,360,2011-12-01 15:51:00
9:51 AM,30.0,10.9,45,30.60,10.0,NNE,9.2,-,N/A,,Clear,30,2011-12-01 16:51:00
10:51 AM,32.0,12.0,44,30.61,10.0,North,8.1,-,N/A,,Clear,360,2011-12-01 17:51:00
11:51 AM,35.1,12.9,40,30.58,10.0,North,8.1,-,N/A,,Clear,10,2011-12-01 18:51:00
12:51 PM,37.0,14.0,39,30.54,10.0,NW,5.8,-,N/A,,Clear,310,2011-12-01 19:51:00
1:51 PM,36.0,16.0,44,30.51,10.0,WNW,6.9,-,N/A,,Clear,290,2011-12-01 20:51:00
2:51 PM,35.1,18.0,50,30.51,10.0,SW,4.6,-,N/A,,Clear,220,2011-12-01 21:51:00
3:51 PM,37.9,16.0,41,30.47,10.0,NW,4.6,-,N/A,,Clear,320,2011-12-01 22:51:00
4:51 PM,30.9,17.1,57,30.49,10.0,Calm,Calm,-,N/A,,Clear,0,2011-12-01 23:51:00
5:51 PM,25.0,17.1,72,30.50,10.0,Calm,Calm,-,N/A,,Clear,0,2011-12-02 00:51:00
7:51 PM,21.9,15.1,75,30.47,10.0,SSE,3.5,-,N/A,,Clear,160,2011-12-02 02:51:00
8:51 PM,21.0,15.1,78,30.45,10.0,ENE,3.5,-,N/A,,Clear,60,2011-12-02 03:51:00
9:51 PM,17.1,12.9,84,30.44,10.0,Calm,Calm,-,N/A,,Clear,0,2011-12-02 04:51:00
11:51 PM,18.0,14.0,84,30.36,10.0,Calm,Calm,-,N/A,,Clear,0,2011-12-02 06:51:00